Location: Ash Swamp
(41.5170°N, 74.6157°W)
Time: 07:06:49
(UTC+00:00)

Cosmos 2112 Rocket - Visible Passes

Search period start: 20 October 2020 00:00
Search period end: 30 October 2020 00:00
Orbit: 756 x 787 km, 74.1° (Epoch: 19 October)

Date Brightness Start Highest point End Pass type
(mag) Time Alt. Az. Time Alt. Az. Time Alt. Az.
20 Oct 6.5 08:00:20 14° NNE 08:00:20 14° NNE 08:01:06 10° NNE visible
21 Oct 6.3 09:05:42 11° NNW 09:05:42 11° NNW 09:06:01 10° NNW visible
22 Oct 6.6 08:30:40 10° N 08:30:40 10° N 08:30:43 10° N visible
